Location: Gauravaram
(16.6995°N, 80.5417°E)
Time: 07:36:38
(UTC+00:00)

Fermi - Pass Details

Date: 03 August 2024
Orbit: 505 x 519 km, 25.6° (Epoch: 13 September)

Event Time Altitude Azimuth Distance (km) Brightness Sun altitude
Exits shadow 22:42:12 50° 333° (NNW) 656 4.1 -22.3°
Maximum altitude 22:42:54 59° 18° (NNE) 590 4.1 -22.1°
Drops below altitude 10° 22:46:50 10° 99° (E) 1,721 7.1 -21.3°
Sets 22:49:05 0° 103° (ESE) 2,602 8.1 -20.8°
